Weather reports worldwide

Advertisment
Aviano, Italy (16036): temperature & dewpoint: 09.12.2018 07:00:00 - 15.12.2018 07:00:00 (CET)Aviano, Italy (16036): wind speed: 09.12.2018 07:00:00 - 15.12.2018 07:00:00 (CET)Aviano, Italy (16036): wind direction: 09.12.2018 07:00:00 - 15.12.2018 07:00:00 (CET)Aviano, Italy (16036): reduced air pressure: 09.12.2018 07:00:00 - 15.12.2018 07:00:00 (CET)Aviano, Italy (16036): visibility: 09.12.2018 07:00:00 - 15.12.2018 07:00:00 (CET)
Date & Time tt [°C] td [°C] ff [km/h] ff [kn] dd ppp [hPa] vv [km]
15.12.2018 07:00:00 - - - - - - -
15.12.2018 06:00:00 1,0 -2,0 5 3 NNW - 10
15.12.2018 05:00:00 -1,0 -4,0 5 3 W - 10
15.12.2018 04:00:00 - - - - - - -
15.12.2018 03:00:00 - - - - - - -
15.12.2018 02:00:00 - - - - - - -
15.12.2018 01:00:00 - - - - - - -
15.12.2018 00:00:00 - - - - - - -
14.12.2018 23:00:00 - - - - - - -
14.12.2018 22:00:00 -1,6 -4,3 5 3 N 1018,7 30
14.12.2018 21:00:00 -1,0 -4,0 4 2 NNW - 10
14.12.2018 20:00:00 0,0 -5,0 4 2 SE - 10
14.12.2018 19:00:00 2,4 -3,7 5 3 N 1017,3 30
14.12.2018 18:00:00 3,0 -4,0 5 3 N - 10
14.12.2018 17:00:00 4,0 -4,0 9 5 E - 10
14.12.2018 16:00:00 6,2 -2,9 9 5 E 1016,0 30
14.12.2018 15:00:00 7,0 -3,0 13 7 ESE - 10
14.12.2018 14:00:00 8,0 -1,0 15 8 E - 10
14.12.2018 13:00:00 7,4 -2,1 13 7 E 1015,8 30
14.12.2018 12:00:00 7,0 -1,0 13 7 E - 10
14.12.2018 11:00:00 6,0 -1,0 13 7 ESE - 10
14.12.2018 10:00:00 4,0 -1,0 4 2 ENE 1016,5 25
14.12.2018 09:00:00 -1,0 -3,0 8 4 NNE - 10
14.12.2018 08:00:00 0,0 -3,0 8 4 N - 10
14.12.2018 07:00:00 0,0 -2,7 9 5 N 1015,5 15
14.12.2018 06:00:00 -1,0 -3,0 11 6 NNE - 10
14.12.2018 05:00:00 0,0 -3,0 9 5 NNE - 10
14.12.2018 04:00:00 - - - - - - -
14.12.2018 03:00:00 - - - - - - -
14.12.2018 02:00:00 - - - - - - -
14.12.2018 01:00:00 - - - - - - -
14.12.2018 00:00:00 - - - - - - -
13.12.2018 23:00:00 - - - - - - -
13.12.2018 22:00:00 1,4 -1,7 9 5 ENE 1016,4 15
13.12.2018 21:00:00 2,0 -3,0 9 5 N - 10
13.12.2018 20:00:00 4,0 -2,0 15 8 NE - 10
13.12.2018 19:00:00 4,6 -2,1 13 7 ENE 1016,4 15
13.12.2018 18:00:00 5,0 -2,0 13 7 N - 10
13.12.2018 17:00:00 5,0 -2,0 13 7 NE - 10
13.12.2018 16:00:00 5,4 -2,2 15 8 E 1016,2 25
13.12.2018 15:00:00 7,0 -1,0 16 9 E - 10
13.12.2018 14:00:00 7,0 -1,0 21 11 E - 10
13.12.2018 13:00:00 7,4 -1,6 18 10 ENE 1016,4 30
13.12.2018 12:00:00 7,0 -2,0 18 10 ENE - 10
13.12.2018 11:00:00 6,0 -2,0 16 9 NE - 10
13.12.2018 10:00:00 5,2 -2,4 13 7 NE 1017,8 30
13.12.2018 09:00:00 3,0 -2,0 13 7 NE - 10
13.12.2018 08:00:00 3,0 -3,0 11 6 NE - 10
13.12.2018 07:00:00 3,0 -1,9 11 6 ENE 1017,4 30
13.12.2018 06:00:00 3,0 0,0 13 7 NE - 10
13.12.2018 05:00:00 3,0 2,0 16 9 NE - 10
13.12.2018 04:00:00 - - - - - - -
13.12.2018 03:00:00 - - - - - - -
13.12.2018 02:00:00 - - - - - - -
13.12.2018 01:00:00 - - - - - - -
13.12.2018 00:00:00 - - - - - - -
12.12.2018 23:00:00 - - - - - - -
12.12.2018 22:00:00 -0,8 -5,2 13 7 NNE 1019,2 25
12.12.2018 21:00:00 -1,0 -5,0 11 6 NNE - 10
12.12.2018 20:00:00 -1,0 -5,0 9 5 NNE - 10
12.12.2018 19:00:00 0,4 -3,5 11 6 N 1019,5 25
12.12.2018 18:00:00 0,0 -4,0 8 4 NNE - 10
12.12.2018 17:00:00 5,0 -6,0 2 1 SW - 10
12.12.2018 16:00:00 8,2 -5,6 4 2 S 1018,5 30
12.12.2018 15:00:00 9,0 -5,0 8 4 SSW - 10
12.12.2018 14:00:00 9,0 -6,0 9 5 S - 10
12.12.2018 13:00:00 9,4 -5,3 5 3 SSW 1019,4 25
12.12.2018 12:00:00 8,0 -5,0 5 3 SSE - 10
12.12.2018 11:00:00 7,0 -4,0 5 3 SSE - 10
12.12.2018 10:00:00 4,0 -4,2 11 6 WSW 1019,8 25
12.12.2018 09:00:00 1,0 -4,0 4 2 NE - 10
12.12.2018 08:00:00 -1,0 -6,0 9 5 NNE - 10
12.12.2018 07:00:00 -2,8 -7,5 11 6 NE 1019,6 15
12.12.2018 06:00:00 -3,0 -7,0 9 5 NE - 10
12.12.2018 05:00:00 -3,0 -6,0 11 6 NE - 10
12.12.2018 04:00:00 - - - - - - -
12.12.2018 03:00:00 - - - - - - -
12.12.2018 02:00:00 - - - - - - -
12.12.2018 01:00:00 - - - - - - -
12.12.2018 00:00:00 - - - - - - -
11.12.2018 23:00:00 - - - - - - -
11.12.2018 22:00:00 0,2 -5,6 8 4 ENE 1019,1 15
11.12.2018 21:00:00 1,0 -5,0 4 2 NE - 10
11.12.2018 20:00:00 2,0 -5,0 5 3 N - 10
11.12.2018 19:00:00 2,8 -3,1 8 4 NNE 1018,8 15
11.12.2018 18:00:00 2,0 -3,0 11 6 NNE - 10
11.12.2018 17:00:00 6,0 -2,0 4 2 ESE - 10
11.12.2018 16:00:00 9,0 -1,4 5 3 ESE 1017,5 25
11.12.2018 15:00:00 11,0 -1,0 8 4 SE - 10
11.12.2018 14:00:00 11,0 -2,0 5 3 E - 10
11.12.2018 13:00:00 10,4 -1,0 9 5 E 1017,0 30
11.12.2018 12:00:00 10,0 -1,0 8 4 SE - 10
11.12.2018 11:00:00 8,0 -2,0 5 3 SSE - 10
11.12.2018 10:00:00 7,0 -2,4 4 2 SE 1017,5 30
11.12.2018 09:00:00 4,0 -4,0 8 4 E - 10
11.12.2018 08:00:00 2,0 -4,0 8 4 ENE - 10
11.12.2018 07:00:00 0,0 -5,0 9 5 N 1017,1 30
11.12.2018 06:00:00 2,0 -4,0 8 4 E - 10
11.12.2018 05:00:00 4,0 -4,0 9 5 WNW - 10
11.12.2018 04:00:00 - - - - - - -
11.12.2018 03:00:00 - - - - - - -
11.12.2018 02:00:00 - - - - - - -
11.12.2018 01:00:00 - - - - - - -
11.12.2018 00:00:00 - - - - - - -
10.12.2018 23:00:00 - - - - - - -
10.12.2018 22:00:00 3,0 -2,9 8 4 E 1016,0 20
10.12.2018 21:00:00 5,0 -5,0 11 6 NW - 10
10.12.2018 20:00:00 4,0 -2,0 5 3 N - 10
10.12.2018 19:00:00 5,0 -0,4 8 4 ENE 1015,7 20
10.12.2018 18:00:00 8,0 1,0 8 4 SW - 10
10.12.2018 17:00:00 8,0 4,0 5 3 WSW - 10
10.12.2018 16:00:00 10,0 4,8 4 2 NNW 1014,6 30
10.12.2018 15:00:00 10,0 5,0 4 2 ESE - 10
10.12.2018 14:00:00 10,0 5,0 5 3 ENE - 10
10.12.2018 13:00:00 8,0 3,5 2 1 NW 1013,8 25
10.12.2018 12:00:00 7,0 3,0 2 1 SSW - 10
10.12.2018 11:00:00 7,0 4,0 11 6 SW - 10
10.12.2018 10:00:00 5,0 3,2 5 3 N 1013,6 25
10.12.2018 09:00:00 3,0 1,0 8 4 NE - 10
10.12.2018 08:00:00 3,0 0,0 5 3 NE - 10
10.12.2018 07:00:00 1,8 0,9 13 7 N 1011,2 25
10.12.2018 06:00:00 1,0 1,0 9 5 NE - 10
10.12.2018 05:00:00 1,0 1,0 8 4 ENE - 10
10.12.2018 04:00:00 - - - - - - -
10.12.2018 03:00:00 - - - - - - -
10.12.2018 02:00:00 - - - - - - -
10.12.2018 01:00:00 - - - - - - -
10.12.2018 00:00:00 - - - - - - -
09.12.2018 23:00:00 - - - - - - -
09.12.2018 22:00:00 - - - - - - -
09.12.2018 21:00:00 - - - - - - -
09.12.2018 20:00:00 - - - - - - -
09.12.2018 19:00:00 - - - - - - -
09.12.2018 18:00:00 - - - - - - -
09.12.2018 17:00:00 - - - - - - -
09.12.2018 16:00:00 - - - - - - -
09.12.2018 15:00:00 - - - - - - -
09.12.2018 14:00:00 - - - - - - -
09.12.2018 13:00:00 - - - - - - -
09.12.2018 12:00:00 - - - - - - -
09.12.2018 11:00:00 - - - - - - -
09.12.2018 10:00:00 - - - - - - -
09.12.2018 09:00:00 - - - - - - -
09.12.2018 08:00:00 - - - - - - -
09.12.2018 07:00:00 - - - - - - -

tt = temperature
td = dewpoint
ff = wind speed
dd = wind direction
ppp = reduced air pressure
vv = visibility

Next stations